ESY167 LIRN-EDDH

Flight info

Callsign ESY167
Flight time 2h 18m
Altitude 38000
Route BEDPI DCT MOLUX DCT XAMIT DCT GIRDA DCT RASTA DCT SIMBA DCT ARMUT DCT ABGUS DCT DIRBO/N0383F230 T902 RARUP RARUP3P
Aircraft A20N/M-SDE2E3FGHIRWXY/LB1

Departure

Time 2026-05-04 14:50
Airport Naples International Airport (LIRN)

Arrival

Time 2026-05-04 17:08
Airport Hamburg Helmut Schmidt Airport (EDDH)
Time Latitude Longitude Altitude Speed Heading
2026-05-04 14:04 40.87866 14.28134 311 ft 0 kts 139°
2026-05-04 14:39 40.87873 14.28127 312 ft 2 kts 140°
2026-05-04 14:39 40.87886 14.28114 311 ft 2 kts 143°
2026-05-04 14:40 40.87914 14.28091 312 ft 2 kts 157°
2026-05-04 14:40 40.87930 14.28086 311 ft 2 kts 185°
2026-05-04 14:40 40.87939 14.28089 311 ft 0 kts 215°
2026-05-04 14:41 40.87945 14.28093 311 ft 2 kts 157°
2026-05-04 14:41 40.87952 14.28075 309 ft 1 kts 77°
2026-05-04 14:41 40.87951 14.28071 309 ft 0 kts 71°
2026-05-04 14:44 40.87951 14.28072 309 ft 1 kts 71°
2026-05-04 14:44 40.87957 14.28096 311 ft 4 kts 72°
2026-05-04 14:44 40.87978 14.28124 311 ft 7 kts 34°
2026-05-04 14:44 40.88034 14.28189 308 ft 13 kts 54°
2026-05-04 14:45 40.88061 14.28320 303 ft 18 kts 95°
2026-05-04 14:45 40.88043 14.28501 301 ft 22 kts 96°
2026-05-04 14:45 40.88094 14.28694 292 ft 25 kts 52°
2026-05-04 14:45 40.88209 14.28893 284 ft 29 kts 53°
2026-05-04 14:46 40.88332 14.29106 275 ft 31 kts 52°
2026-05-04 14:46 40.88467 14.29340 266 ft 33 kts 53°
2026-05-04 14:46 40.88613 14.29590 256 ft 35 kts 52°
2026-05-04 14:46 40.88768 14.29861 245 ft 38 kts 53°
2026-05-04 14:47 40.88929 14.30141 238 ft 36 kts 53°
2026-05-04 14:47 40.89024 14.30275 228 ft 9 kts
2026-05-04 14:47 40.89039 14.30266 230 ft 0 kts 321°
2026-05-04 14:49 40.89039 14.30265 230 ft 0 kts 321°
2026-05-04 14:49 40.89065 14.30241 228 ft 12 kts 327°
2026-05-04 14:49 40.89102 14.30130 233 ft 16 kts 237°
2026-05-04 14:49 40.89005 14.29927 240 ft 53 kts 238°
2026-05-04 14:50 40.88680 14.29244 264 ft 123 kts 238°
2026-05-04 14:50 40.88143 14.28105 575 ft 154 kts 238°
2026-05-04 14:50 40.87541 14.26950 1347 ft 155 kts 222°
2026-05-04 14:50 40.86459 14.26437 1762 ft 185 kts 181°
2026-05-04 14:51 40.85042 14.26608 2032 ft 222 kts 172°
2026-05-04 14:51 40.83469 14.26920 2657 ft 232 kts 172°
2026-05-04 14:51 40.81852 14.27206 3397 ft 235 kts 173°
2026-05-04 14:51 40.80219 14.27456 4129 ft 237 kts 174°
2026-05-04 14:52 40.78578 14.27682 4899 ft 237 kts 174°
2026-05-04 14:52 40.76942 14.27893 5641 ft 237 kts 175°
2026-05-04 14:52 40.75278 14.28099 6263 ft 243 kts 175°
2026-05-04 14:52 40.73575 14.28309 6849 ft 248 kts 173°
2026-05-04 14:53 40.71947 14.29043 7433 ft 252 kts 142°
2026-05-04 14:53 40.70929 14.30898 7996 ft 256 kts 106°
2026-05-04 14:53 40.70918 14.33225 8572 ft 259 kts 74°
2026-05-04 14:53 40.71495 14.35488 9190 ft 262 kts 70°
2026-05-04 14:54 40.72077 14.37759 9782 ft 266 kts 72°
2026-05-04 14:54 40.72590 14.40117 10387 ft 269 kts 74°
2026-05-04 14:54 40.73274 14.42417 10934 ft 272 kts 57°
2026-05-04 14:54 40.74606 14.44182 11530 ft 275 kts 32°
2026-05-04 14:55 40.76266 14.45439 12284 ft 276 kts 27°
2026-05-04 14:55 40.77974 14.46602 13026 ft 278 kts 26°
2026-05-04 14:55 40.79706 14.47780 13724 ft 282 kts 26°
2026-05-04 14:55 40.81462 14.48988 14391 ft 285 kts 26°
2026-05-04 14:56 40.83221 14.50210 15048 ft 287 kts 26°
2026-05-04 14:56 40.84996 14.51452 15693 ft 290 kts 25°
2026-05-04 14:56 40.86781 14.52705 16281 ft 292 kts 25°
2026-05-04 14:56 40.88580 14.53972 16757 ft 295 kts 25°
2026-05-04 14:57 40.90474 14.55012 17308 ft 295 kts 11°
2026-05-04 14:57 40.92478 14.55563 17958 ft 294 kts
2026-05-04 14:57 40.94483 14.55931 18540 ft 295 kts
2026-05-04 14:57 40.96533 14.56186 19124 ft 297 kts
2026-05-04 14:58 40.98596 14.56381 19724 ft 297 kts 360°
2026-05-04 14:58 41.00667 14.56553 20303 ft 299 kts 360°
2026-05-04 14:58 41.02755 14.56724 20875 ft 302 kts 360°
2026-05-04 14:58 41.04865 14.56906 21427 ft 305 kts
2026-05-04 14:59 41.06989 14.57098 21969 ft 307 kts
2026-05-04 14:59 41.09135 14.57299 22489 ft 310 kts
2026-05-04 14:59 41.13459 14.57720 23513 ft 316 kts
2026-05-04 15:00 41.15660 14.57936 23957 ft 318 kts
2026-05-04 15:00 41.17880 14.58155 24351 ft 321 kts
2026-05-04 15:00 41.20112 14.58376 24774 ft 323 kts
2026-05-04 15:01 41.24625 14.58820 25587 ft 327 kts
2026-05-04 15:01 41.26908 14.59044 25977 ft 329 kts
2026-05-04 15:01 41.29212 14.59270 26282 ft 334 kts
2026-05-04 15:01 41.31543 14.59499 26638 ft 337 kts
2026-05-04 15:02 41.33889 14.59730 27019 ft 339 kts
2026-05-04 15:02 41.36247 14.59962 27362 ft 341 kts
2026-05-04 15:02 41.38621 14.60197 27689 ft 343 kts
2026-05-04 15:02 41.41008 14.60433 28015 ft 346 kts
2026-05-04 15:03 41.45846 14.60911 28116 ft 348 kts
2026-05-04 15:03 41.50673 14.61389 28117 ft 348 kts
2026-05-04 15:04 41.55482 14.61867 28106 ft 349 kts
2026-05-04 15:04 41.60324 14.62348 28103 ft 349 kts
2026-05-04 15:05 41.65165 14.62829 28098 ft 348 kts
2026-05-04 15:05 41.70046 14.63311 28098 ft 361 kts
2026-05-04 15:06 41.72598 14.63561 28095 ft 374 kts
2026-05-04 15:06 41.75233 14.63821 28094 ft 385 kts
2026-05-04 15:06 41.77948 14.64089 28086 ft 397 kts
2026-05-04 15:07 41.83618 14.64654 28088 ft 420 kts
2026-05-04 15:07 41.89587 14.65254 28087 ft 440 kts
2026-05-04 15:07 41.92662 14.65564 28350 ft 443 kts
2026-05-04 15:08 41.95731 14.65876 28848 ft 442 kts
2026-05-04 15:08 41.98821 14.66188 29026 ft 448 kts
2026-05-04 15:08 42.01953 14.66504 29163 ft 455 kts
2026-05-04 15:08 42.05127 14.66823 29291 ft 461 kts
2026-05-04 15:09 42.08345 14.67146 29467 ft 466 kts
2026-05-04 15:09 42.11595 14.67473 29685 ft 470 kts
2026-05-04 15:09 42.14861 14.67804 30091 ft 470 kts
2026-05-04 15:10 42.21327 14.68461 30900 ft 466 kts
2026-05-04 15:10 42.24554 14.68789 31300 ft 464 kts
2026-05-04 15:10 42.30992 14.69443 31958 ft 464 kts
2026-05-04 15:11 42.34212 14.69769 32252 ft 464 kts
2026-05-04 15:11 42.37424 14.70096 32698 ft 460 kts
2026-05-04 15:11 42.40590 14.70420 33254 ft 454 kts
2026-05-04 15:11 42.43743 14.70743 33618 ft 452 kts
2026-05-04 15:12 42.46885 14.71063 33865 ft 453 kts
2026-05-04 15:12 42.50037 14.71383 34037 ft 456 kts
2026-05-04 15:12 42.53210 14.71704 34179 ft 458 kts
2026-05-04 15:12 42.56386 14.72028 34427 ft 457 kts
2026-05-04 15:13 42.59554 14.72353 34719 ft 456 kts
2026-05-04 15:13 42.62712 14.72678 34976 ft 454 kts
2026-05-04 15:13 42.65824 14.72999 35240 ft 453 kts
2026-05-04 15:13 42.68962 14.73321 35479 ft 452 kts
2026-05-04 15:14 42.72108 14.73644 35610 ft 454 kts
2026-05-04 15:14 42.75257 14.73967 35835 ft 453 kts
2026-05-04 15:14 42.78397 14.74291 36085 ft 451 kts
2026-05-04 15:14 42.81524 14.74614 36318 ft 450 kts
2026-05-04 15:15 42.84642 14.74937 36539 ft 449 kts 360°
2026-05-04 15:15 42.87752 14.75258 36756 ft 448 kts
2026-05-04 15:15 42.90870 14.75580 36906 ft 449 kts
2026-05-04 15:16 42.96963 14.76219 37947 ft 431 kts 359°
2026-05-04 15:16 42.99960 14.76532 38074 ft 432 kts 359°
2026-05-04 15:17 43.07993 14.77357 38086 ft 431 kts 359°
2026-05-04 15:17 43.16869 14.78285 38082 ft 425 kts 359°
2026-05-04 15:18 43.22761 14.78898 38082 ft 425 kts 359°
2026-05-04 15:19 43.31561 14.79353 38080 ft 419 kts 349°
2026-05-04 15:19 43.40133 14.77204 38081 ft 417 kts 343°
2026-05-04 15:20 43.45799 14.75497 38078 ft 417 kts 343°
2026-05-04 15:20 43.51473 14.73775 38072 ft 418 kts 343°
2026-05-04 15:21 43.57166 14.72066 38081 ft 419 kts 343°
2026-05-04 15:22 43.65713 14.69515 38082 ft 419 kts 344°
2026-05-04 15:22 43.74260 14.66959 38093 ft 419 kts 344°
2026-05-04 15:23 43.79967 14.65246 38083 ft 420 kts 343°
2026-05-04 15:23 43.85671 14.63531 38085 ft 419 kts 343°
2026-05-04 15:24 43.97043 14.60102 38092 ft 419 kts 343°
2026-05-04 15:25 44.02750 14.58376 38083 ft 419 kts 343°
2026-05-04 15:26 44.11316 14.55778 38080 ft 421 kts 343°
2026-05-04 15:26 44.19912 14.53164 38086 ft 421 kts 343°
2026-05-04 15:27 44.28509 14.50543 38087 ft 422 kts 344°
2026-05-04 15:28 44.37087 14.47918 38088 ft 422 kts 344°
2026-05-04 15:29 44.45698 14.45276 38094 ft 422 kts 344°
2026-05-04 15:30 44.65839 14.39065 38107 ft 424 kts 344°
2026-05-04 15:31 44.74511 14.36377 38105 ft 426 kts 344°
2026-05-04 15:32 44.88945 14.31884 38108 ft 426 kts 344°
2026-05-04 15:34 45.03450 14.27347 38103 ft 427 kts 344°
2026-05-04 15:34 45.12146 14.24615 38101 ft 429 kts 344°
2026-05-04 15:35 45.20900 14.21856 38098 ft 429 kts 344°
2026-05-04 15:36 45.29648 14.19091 38106 ft 429 kts 344°
2026-05-04 15:36 45.35491 14.17239 38099 ft 430 kts 344°
2026-05-04 15:37 45.41296 14.15395 38095 ft 430 kts 344°
2026-05-04 15:37 45.47141 14.13532 38097 ft 430 kts 344°
2026-05-04 15:38 45.52956 14.11519 38090 ft 430 kts 342°
2026-05-04 15:38 45.58758 14.09408 38089 ft 430 kts 342°
2026-05-04 15:39 45.64557 14.07294 38087 ft 430 kts 342°
2026-05-04 15:40 45.73267 14.04136 38086 ft 431 kts 343°
2026-05-04 15:40 45.79085 14.02029 38082 ft 431 kts 342°
2026-05-04 15:41 45.84859 13.99932 38080 ft 431 kts 343°
2026-05-04 15:41 45.90682 13.97812 38084 ft 431 kts 342°
2026-05-04 15:42 45.96498 13.95691 38080 ft 431 kts 342°
2026-05-04 15:42 46.02321 13.93563 38077 ft 432 kts 342°
2026-05-04 15:43 46.08152 13.91426 38082 ft 432 kts 342°
2026-05-04 15:43 46.13947 13.89298 38070 ft 432 kts 343°
2026-05-04 15:44 46.19780 13.87152 38071 ft 433 kts 342°
2026-05-04 15:44 46.25612 13.85002 38061 ft 432 kts 343°
2026-05-04 15:45 46.31441 13.82848 38070 ft 433 kts 342°
2026-05-04 15:45 46.37277 13.80685 38069 ft 433 kts 342°
2026-05-04 15:46 46.43107 13.78521 38061 ft 432 kts 342°
2026-05-04 15:46 46.48932 13.76357 38054 ft 432 kts 342°
2026-05-04 15:47 46.54765 13.74181 38053 ft 432 kts 342°
2026-05-04 15:47 46.60592 13.72000 38050 ft 433 kts 342°
2026-05-04 15:48 46.66393 13.69827 38041 ft 433 kts 342°
2026-05-04 15:48 46.75153 13.66538 38036 ft 433 kts 342°
2026-05-04 15:49 46.80991 13.64339 38027 ft 433 kts 342°
2026-05-04 15:49 46.86858 13.62123 38018 ft 435 kts 342°
2026-05-04 15:50 46.92721 13.59906 38032 ft 434 kts 342°
2026-05-04 15:50 46.98539 13.57701 38034 ft 435 kts 342°
2026-05-04 15:51 47.04399 13.55473 38013 ft 436 kts 342°
2026-05-04 15:51 47.10272 13.53235 38004 ft 435 kts 342°
2026-05-04 15:52 47.16139 13.50993 38015 ft 436 kts 342°
2026-05-04 15:52 47.22011 13.48746 38003 ft 436 kts 342°
2026-05-04 15:53 47.27845 13.46510 37968 ft 436 kts 342°
2026-05-04 15:53 47.33718 13.44251 37964 ft 436 kts 342°
2026-05-04 15:54 47.39589 13.41989 37960 ft 436 kts 342°
2026-05-04 15:54 47.45464 13.39723 37942 ft 436 kts 342°
2026-05-04 15:55 47.51317 13.37357 37939 ft 435 kts 340°
2026-05-04 15:55 47.57066 13.34580 37927 ft 435 kts 338°
2026-05-04 15:56 47.62796 13.31684 37915 ft 435 kts 338°
2026-05-04 15:56 47.68537 13.28806 37920 ft 435 kts 338°
2026-05-04 15:57 47.74240 13.25974 37911 ft 435 kts 338°
2026-05-04 15:57 47.79985 13.23128 37902 ft 435 kts 338°
2026-05-04 15:58 47.85728 13.20279 37902 ft 435 kts 338°
2026-05-04 15:58 47.91484 13.17414 37900 ft 435 kts 338°
2026-05-04 15:59 47.97229 13.14546 37901 ft 435 kts 338°
2026-05-04 15:59 48.02979 13.11669 37898 ft 435 kts 338°
2026-05-04 16:00 48.08694 13.08803 37903 ft 436 kts 338°
2026-05-04 16:00 48.14443 13.05913 37900 ft 436 kts 338°
2026-05-04 16:01 48.20185 13.03020 37903 ft 435 kts 338°
2026-05-04 16:01 48.25957 13.00205 37903 ft 436 kts 340°
2026-05-04 16:02 48.31777 12.97584 37912 ft 436 kts 340°
2026-05-04 16:03 48.40512 12.93686 37906 ft 437 kts 340°
2026-05-04 16:03 48.46295 12.91072 37906 ft 437 kts 340°
2026-05-04 16:04 48.52116 12.88426 37905 ft 437 kts 340°
2026-05-04 16:04 48.60847 12.84443 37910 ft 436 kts 340°
2026-05-04 16:05 48.66666 12.81781 37912 ft 436 kts 340°
2026-05-04 16:06 48.75348 12.77799 37916 ft 436 kts 340°
2026-05-04 16:07 48.86975 12.72443 37919 ft 436 kts 340°
2026-05-04 16:08 48.97604 12.67523 37923 ft 435 kts 339°
2026-05-04 16:09 49.12099 12.60778 37933 ft 435 kts 339°
2026-05-04 16:10 49.23654 12.55372 37936 ft 435 kts 339°
2026-05-04 16:11 49.35256 12.49917 37944 ft 437 kts 339°
2026-05-04 16:12 49.52719 12.41656 37955 ft 438 kts 339°
2026-05-04 16:13 49.64327 12.36131 37950 ft 437 kts 339°
2026-05-04 16:14 49.75904 12.30390 37953 ft 436 kts 336°
2026-05-04 16:16 49.90159 12.22213 37958 ft 437 kts 335°
2026-05-04 16:17 50.04407 12.14079 37964 ft 437 kts 335°
2026-05-04 16:18 50.15843 12.07524 37967 ft 437 kts 335°
2026-05-04 16:19 50.30096 11.99302 37964 ft 439 kts 335°
2026-05-04 16:20 50.44443 11.90975 37962 ft 439 kts 335°
2026-05-04 16:22 50.58755 11.82613 37962 ft 440 kts 335°
2026-05-04 16:23 50.75928 11.72507 37975 ft 441 kts 335°
2026-05-04 16:25 50.93112 11.62318 37957 ft 439 kts 335°
2026-05-04 16:26 51.13110 11.50356 37960 ft 438 kts 334°
2026-05-04 16:28 51.27355 11.41764 37971 ft 441 kts 334°
2026-05-04 16:29 51.47428 11.29566 37965 ft 441 kts 334°
2026-05-04 16:31 51.61706 11.20819 37977 ft 439 kts 334°
2026-05-04 16:32 51.78865 11.10226 37971 ft 440 kts 333°
2026-05-04 16:33 51.90571 11.04546 37971 ft 447 kts 345°
2026-05-04 16:34 51.99848 11.02475 37972 ft 449 kts 347°
2026-05-04 16:35 52.18417 10.98578 37964 ft 448 kts 347°
2026-05-04 16:36 52.27680 10.96577 37963 ft 447 kts 347°
2026-05-04 16:37 52.36903 10.94577 37956 ft 449 kts 347°
2026-05-04 16:38 52.49278 10.91893 37960 ft 452 kts 347°
2026-05-04 16:39 52.58758 10.89797 37924 ft 465 kts 347°
2026-05-04 16:39 52.65294 10.88345 37345 ft 474 kts 347°
2026-05-04 16:40 52.71662 10.86955 37140 ft 450 kts 346°
2026-05-04 16:40 52.77749 10.85640 36439 ft 439 kts 346°
2026-05-04 16:41 52.83726 10.84325 34715 ft 440 kts 346°
2026-05-04 16:41 52.92590 10.82528 32368 ft 421 kts 345°
2026-05-04 16:42 53.01404 10.80713 28606 ft 432 kts 345°
2026-05-04 16:43 53.07393 10.79486 25806 ft 437 kts 346°
2026-05-04 16:43 53.13463 10.78240 22828 ft 441 kts 348°
2026-05-04 16:43 53.16507 10.77617 21236 ft 439 kts 348°
2026-05-04 16:44 53.28355 10.75183 15540 ft 411 kts 349°
2026-05-04 16:45 53.33838 10.74051 13172 ft 387 kts 350°
2026-05-04 16:46 53.41485 10.72464 10370 ft 351 kts 349°
2026-05-04 16:46 53.46102 10.71506 9981 ft 313 kts 349°
2026-05-04 16:47 53.50121 10.70674 10002 ft 270 kts 349°
2026-05-04 16:47 53.53647 10.69934 10007 ft 247 kts 348°
2026-05-04 16:48 53.58337 10.67398 9999 ft 228 kts 317°
2026-05-04 16:48 53.59434 10.65587 9996 ft 220 kts 304°
2026-05-04 16:49 53.60668 10.61091 9996 ft 207 kts 278°
2026-05-04 16:49 53.60584 10.56368 10001 ft 200 kts 254°
2026-05-04 16:50 53.59522 10.52228 10002 ft 190 kts 243°
2026-05-04 16:50 53.58323 10.48285 10001 ft 187 kts 247°
2026-05-04 16:51 53.57910 10.43814 9996 ft 191 kts 276°
2026-05-04 16:51 53.58284 10.41683 9969 ft 191 kts 291°
2026-05-04 16:51 53.60002 10.38223 9837 ft 197 kts 315°
2026-05-04 16:52 53.62127 10.35291 9713 ft 197 kts 316°
2026-05-04 16:52 53.63191 10.33827 9653 ft 197 kts 316°
2026-05-04 16:53 53.65631 10.31723 9499 ft 206 kts 345°
2026-05-04 16:53 53.69653 10.34119 8945 ft 219 kts 44°
2026-05-04 16:54 53.70652 10.36063 8753 ft 219 kts 48°
2026-05-04 16:55 53.74494 10.43998 8058 ft 217 kts 48°
2026-05-04 16:55 53.76417 10.47923 7749 ft 216 kts 48°
2026-05-04 16:56 53.78002 10.51156 7540 ft 214 kts 48°
2026-05-04 16:56 53.81166 10.57601 7120 ft 213 kts 45°
2026-05-04 16:57 53.81871 10.58793 7039 ft 210 kts 35°
2026-05-04 16:57 53.84444 10.60456 6712 ft 196 kts 354°
2026-05-04 16:58 53.87801 10.57619 6161 ft 179 kts 304°
2026-05-04 16:58 53.88417 10.55823 5981 ft 176 kts 289°
2026-05-04 16:59 53.88456 10.51810 5533 ft 175 kts 252°
2026-05-04 17:00 53.85649 10.44963 4549 ft 180 kts 233°
2026-05-04 17:00 53.83317 10.40163 4386 ft 176 kts 233°
2026-05-04 17:01 53.81759 10.36976 4392 ft 175 kts 233°
2026-05-04 17:01 53.80212 10.33813 4392 ft 175 kts 233°
2026-05-04 17:02 53.78647 10.30613 4381 ft 177 kts 233°
2026-05-04 17:02 53.77071 10.27393 4283 ft 178 kts 233°
2026-05-04 17:03 53.76290 10.25799 4047 ft 177 kts 233°
2026-05-04 17:03 53.75502 10.24191 3786 ft 179 kts 233°
2026-05-04 17:03 53.73945 10.21017 3264 ft 169 kts 233°
2026-05-04 17:04 53.72514 10.18108 2986 ft 147 kts 233°
2026-05-04 17:04 53.71212 10.15450 3225 ft 142 kts 233°
2026-05-04 17:05 53.70009 10.12972 2610 ft 137 kts 235°
2026-05-04 17:05 53.68743 10.10323 1880 ft 148 kts 234°
2026-05-04 17:06 53.67435 10.07673 1240 ft 141 kts 232°
2026-05-04 17:06 53.66824 10.06479 1043 ft 132 kts 233°
2026-05-04 17:07 53.65638 10.04058 767 ft 138 kts 237°
2026-05-04 17:07 53.65230 10.03261 669 ft 129 kts 234°
2026-05-04 17:07 53.64440 10.01669 409 ft 135 kts 233°
2026-05-04 17:07 53.63836 10.00451 195 ft 134 kts 233°
2026-05-04 17:08 53.63257 9.99284 65 ft 123 kts 233°
2026-05-04 17:08 53.62692 9.98129 47 ft 17 kts 230°
2026-05-04 17:08 53.62609 9.97965 46 ft 20 kts 230°
2026-05-04 17:09 53.62507 9.97799 44 ft 21 kts 194°
2026-05-04 17:09 53.62457 9.97815 44 ft 0 kts 149°
2026-05-04 17:10 53.62444 9.97831 41 ft 3 kts 139°
2026-05-04 17:10 53.62440 9.98006 42 ft 8 kts 73°
2026-05-04 17:11 53.62499 9.98164 45 ft 22 kts 48°
2026-05-04 17:11 53.62600 9.98369 45 ft 23 kts 50°
2026-05-04 17:11 53.62823 9.98818 46 ft 26 kts 49°
2026-05-04 17:12 53.62943 9.99062 47 ft 28 kts 51°
2026-05-04 17:12 53.63079 9.99352 48 ft 0 kts 55°
2026-05-04 17:14 53.63132 9.99479 49 ft 16 kts 54°
2026-05-04 17:14 53.63208 9.99637 48 ft 19 kts 49°
2026-05-04 17:14 53.63392 9.99989 49 ft 21 kts 50°
2026-05-04 17:15 53.63429 10.00114 49 ft 4 kts 115°
2026-05-04 17:15 53.63377 10.00222 49 ft 7 kts 152°
2026-05-04 17:16 53.63330 10.00330 49 ft 7 kts 88°
2026-05-04 17:16 53.63330 10.00341 49 ft 0 kts 88°